owner,sensor,date,latitude,longitude,vertical_datum,wind_speed,wind_to_direction,wind_speed_of_gust,qcFlag 
WAVCIS,ioos:station:WAVCIS:CSI09:1,2008-02-01T00:00:00Z,29.1015,-89.9782,0.0,12.05,179.0,,'11111222,11111222,99999999' 
WAVCIS,ioos:station:WAVCIS:CSI09:1,2008-02-01T01:00:00Z,29.1015,-89.9782,0.0,11.02,279.0,,'11111222,11111222,99999999' 
WAVCIS,ioos:station:WAVCIS:CSI09:1,2008-02-01T02:00:00Z,29.1015,-89.9782,0.0,11.48,275.0,,'11111222,11111222,99999999' 
WAVCIS,ioos:station:WAVCIS:CSI09:1,2008-02-01T03:00:00Z,29.1015,-89.9782,0.0,12.46,285.0,,'11111222,11111222,99999999' 
WAVCIS,ioos:station:WAVCIS:CSI09:1,2008-02-01T04:00:00Z,29.1015,-89.9782,0.0,10.99,290.0,,'11111222,11111222,99999999' 
WAVCIS,ioos:station:WAVCIS:CSI09:1,2008-02-01T05:00:00Z,29.1015,-89.9782,0.0,10.45,283.0,,'11111222,11111222,99999999' 
WAVCIS,ioos:station:WAVCIS:CSI09:1,2008-02-01T06:00:00Z,29.1015,-89.9782,0.0,12.45,292.0,,'11111222,11111222,99999999' 
WAVCIS,ioos:station:WAVCIS:CSI09:1,2008-02-01T07:00:00Z,29.1015,-89.9782,0.0,11.91,292.0,,'11111222,11111222,99999999' 
WAVCIS,ioos:station:WAVCIS:CSI09:1,2008-02-01T08:00:00Z,29.1015,-89.9782,0.0,14.1,298.0,,'11111222,11111222,99999999' 
WAVCIS,ioos:station:WAVCIS:CSI09:1,2008-02-01T09:00:00Z,29.1015,-89.9782,0.0,12.54,302.0,,'11111222,11111222,99999999' 
WAVCIS,ioos:station:WAVCIS:CSI09:1,2008-02-01T10:00:00Z,29.1015,-89.9782,0.0,13.58,306.0,,'11111222,11111222,99999999' 
WAVCIS,ioos:station:WAVCIS:CSI09:1,2008-02-01T11:00:00Z,29.1015,-89.9782,0.0,11.22,313.0,,'11111222,11111222,99999999' 
WAVCIS,ioos:station:WAVCIS:CSI09:1,2008-02-01T12:00:00Z,29.1015,-89.9782,0.0,11.67,320.0,,'11111222,11111222,99999999' 
WAVCIS,ioos:station:WAVCIS:CSI09:1,2008-02-01T13:00:00Z,29.1015,-89.9782,0.0,9.85,325.0,,'11111222,11111222,99999999' 
WAVCIS,ioos:station:WAVCIS:CSI09:1,2008-02-01T14:00:00Z,29.1015,-89.9782,0.0,9.55,325.0,,'11111222,11111222,99999999' 
WAVCIS,ioos:station:WAVCIS:CSI09:1,2008-02-01T15:00:00Z,29.1015,-89.9782,0.0,8.54,328.0,,'11111222,11111222,99999999' 
WAVCIS,ioos:station:WAVCIS:CSI09:1,2008-02-01T16:00:00Z,29.1015,-89.9782,0.0,7.67,339.0,,'11111222,11111222,99999999' 
WAVCIS,ioos:station:WAVCIS:CSI09:1,2008-02-01T17:00:00Z,29.1015,-89.9782,0.0,6.401,347.0,,'11111222,11111222,99999999' 
WAVCIS,ioos:station:WAVCIS:CSI09:1,2008-02-01T18:00:00Z,29.1015,-89.9782,0.0,4.856,2.0,,'11111222,11111222,99999999' 
WAVCIS,ioos:station:WAVCIS:CSI09:1,2008-02-01T19:00:00Z,29.1015,-89.9782,0.0,3.152,8.0,,'11111222,11111222,99999999' 
WAVCIS,ioos:station:WAVCIS:CSI09:1,2008-02-01T20:00:00Z,29.1015,-89.9782,0.0,3.56,339.0,,'11111222,11111222,99999999' 
WAVCIS,ioos:station:WAVCIS:CSI09:1,2008-02-01T21:00:00Z,29.1015,-89.9782,0.0,2.189,350.0,,'11111222,11111222,99999999' 
WAVCIS,ioos:station:WAVCIS:CSI09:1,2008-02-01T22:00:00Z,29.1015,-89.9782,0.0,1.897,343.0,,'11111222,11111222,99999999' 
WAVCIS,ioos:station:WAVCIS:CSI09:1,2008-02-01T23:00:00Z,29.1015,-89.9782,0.0,1.629,29.0,,'11111222,11111222,99999999' 
WAVCIS,ioos:station:WAVCIS:CSI09:1,2008-02-02T00:00:00Z,29.1015,-89.9782,0.0,1.455,15.0,,'11111222,11111222,99999999' 
WAVCIS,ioos:station:WAVCIS:CSI09:1,2008-02-02T01:00:00Z,29.1015,-89.9782,0.0,1.927,78.0,,'11111222,11111222,99999999' 
WAVCIS,ioos:station:WAVCIS:CSI09:1,2008-02-02T02:00:00Z,29.1015,-89.9782,0.0,2.123,131.0,,'11111222,11111222,99999999' 
WAVCIS,ioos:station:WAVCIS:CSI09:1,2008-02-02T03:00:00Z,29.1015,-89.9782,0.0,2.783,117.0,,'11111222,11111222,99999999' 
WAVCIS,ioos:station:WAVCIS:CSI09:1,2008-02-02T04:00:00Z,29.1015,-89.9782,0.0,2.454,125.0,,'11111222,11111222,99999999' 
WAVCIS,ioos:station:WAVCIS:CSI09:1,2008-02-02T05:00:00Z,29.1015,-89.9782,0.0,2.564,104.0,,'11111222,11111222,99999999' 
WAVCIS,ioos:station:WAVCIS:CSI09:1,2008-02-02T06:00:00Z,29.1015,-89.9782,0.0,1.977,69.0,,'11111222,11111222,99999999' 
WAVCIS,ioos:station:WAVCIS:CSI09:1,2008-02-02T07:00:00Z,29.1015,-89.9782,0.0,2.751,130.0,,'11111222,11111222,99999999' 
WAVCIS,ioos:station:WAVCIS:CSI09:1,2008-02-02T08:00:00Z,29.1015,-89.9782,0.0,2.988,148.0,,'11111222,11111222,99999999' 
WAVCIS,ioos:station:WAVCIS:CSI09:1,2008-02-02T09:00:00Z,29.1015,-89.9782,0.0,2.793,125.0,,'11111222,11111222,99999999' 
WAVCIS,ioos:station:WAVCIS:CSI09:1,2008-02-02T10:00:00Z,29.1015,-89.9782,0.0,2.552,127.0,,'11111222,11111222,99999999' 
WAVCIS,ioos:station:WAVCIS:CSI09:1,2008-02-02T11:00:00Z,29.1015,-89.9782,0.0,3.973,123.0,,'11111222,11111222,99999999' 
WAVCIS,ioos:station:WAVCIS:CSI09:1,2008-02-02T12:00:00Z,29.1015,-89.9782,0.0,3.406,111.0,,'11111222,11111222,99999999' 
WAVCIS,ioos:station:WAVCIS:CSI09:1,2008-02-02T13:00:00Z,29.1015,-89.9782,0.0,3.914,88.0,,'11111222,11111222,99999999' 
WAVCIS,ioos:station:WAVCIS:CSI09:1,2008-02-02T14:00:00Z,29.1015,-89.9782,0.0,4.949,88.0,,'11111222,11111222,99999999' 
WAVCIS,ioos:station:WAVCIS:CSI09:1,2008-02-02T15:00:00Z,29.1015,-89.9782,0.0,4.659,91.0,,'11111222,11111222,99999999' 
WAVCIS,ioos:station:WAVCIS:CSI09:1,2008-02-02T16:00:00Z,29.1015,-89.9782,0.0,4.293,99.0,,'11111222,11111222,99999999' 
WAVCIS,ioos:station:WAVCIS:CSI09:1,2008-02-02T17:00:00Z,29.1015,-89.9782,0.0,4.362,83.0,,'11111222,11111222,99999999' 
WAVCIS,ioos:station:WAVCIS:CSI09:1,2008-02-02T18:00:00Z,29.1015,-89.9782,0.0,3.833,91.0,,'11111222,11111222,99999999' 
WAVCIS,ioos:station:WAVCIS:CSI09:1,2008-02-02T19:00:00Z,29.1015,-89.9782,0.0,2.787,106.0,,'11111222,11111222,99999999' 
WAVCIS,ioos:station:WAVCIS:CSI09:1,2008-02-02T20:00:00Z,29.1015,-89.9782,0.0,2.821,93.0,,'11111222,11111222,99999999' 
WAVCIS,ioos:station:WAVCIS:CSI09:1,2008-02-02T21:00:00Z,29.1015,-89.9782,0.0,2.508,97.0,,'11111222,11111222,99999999' 
WAVCIS,ioos:station:WAVCIS:CSI09:1,2008-02-02T22:00:00Z,29.1015,-89.9782,0.0,3.335,88.0,,'11111222,11111222,99999999' 
WAVCIS,ioos:station:WAVCIS:CSI09:1,2008-02-02T23:00:00Z,29.1015,-89.9782,0.0,3.633,90.0,,'11111222,11111222,99999999' 
WAVCIS,ioos:station:WAVCIS:CSI09:1,2008-02-03T00:00:00Z,29.1015,-89.9782,0.0,3.803,98.0,,'11111222,11111222,99999999' 
WAVCIS,ioos:station:WAVCIS:CSI09:1,2008-02-03T01:00:00Z,29.1015,-89.9782,0.0,4.573,101.0,,'11111222,11111222,99999999' 
WAVCIS,ioos:station:WAVCIS:CSI09:1,2008-02-03T02:00:00Z,29.1015,-89.9782,0.0,5.694,101.0,,'11111222,11111222,99999999' 
WAVCIS,ioos:station:WAVCIS:CSI09:1,2008-02-03T03:00:00Z,29.1015,-89.9782,0.0,6.588,111.0,,'11111222,11111222,99999999' 
WAVCIS,ioos:station:WAVCIS:CSI09:1,2008-02-03T04:00:00Z,29.1015,-89.9782,0.0,5.307,116.0,,'11111222,11111222,99999999' 
WAVCIS,ioos:station:WAVCIS:CSI09:1,2008-02-03T05:00:00Z,29.1015,-89.9782,0.0,4.658,122.0,,'11111222,11111222,99999999' 
WAVCIS,ioos:station:WAVCIS:CSI09:1,2008-02-03T06:00:00Z,29.1015,-89.9782,0.0,6.291,134.0,,'11111222,11111222,99999999' 
WAVCIS,ioos:station:WAVCIS:CSI09:1,2008-02-03T07:00:00Z,29.1015,-89.9782,0.0,4.823,147.0,,'11111222,11111222,99999999' 
WAVCIS,ioos:station:WAVCIS:CSI09:1,2008-02-03T08:00:00Z,29.1015,-89.9782,0.0,5.518,141.0,,'11111222,11111222,99999999' 
WAVCIS,ioos:station:WAVCIS:CSI09:1,2008-02-03T09:00:00Z,29.1015,-89.9782,0.0,4.973,136.0,,'11111222,11111222,99999999' 
WAVCIS,ioos:station:WAVCIS:CSI09:1,2008-02-03T10:00:00Z,29.1015,-89.9782,0.0,5.015,136.0,,'11111222,11111222,99999999' 
WAVCIS,ioos:station:WAVCIS:CSI09:1,2008-02-03T11:00:00Z,29.1015,-89.9782,0.0,4.541,129.0,,'11111222,11111222,99999999' 
WAVCIS,ioos:station:WAVCIS:CSI09:1,2008-02-03T12:00:00Z,29.1015,-89.9782,0.0,5.364,136.0,,'11111222,11111222,99999999' 
WAVCIS,ioos:station:WAVCIS:CSI09:1,2008-02-03T13:00:00Z,29.1015,-89.9782,0.0,5.557,128.0,,'11111222,11111222,99999999' 
WAVCIS,ioos:station:WAVCIS:CSI09:1,2008-02-03T14:00:00Z,29.1015,-89.9782,0.0,6.416,137.0,,'11111222,11111222,99999999' 
WAVCIS,ioos:station:WAVCIS:CSI09:1,2008-02-03T15:00:00Z,29.1015,-89.9782,0.0,8.05,139.0,,'11111222,11111222,99999999' 
WAVCIS,ioos:station:WAVCIS:CSI09:1,2008-02-03T16:00:00Z,29.1015,-89.9782,0.0,9.04,143.0,,'11111222,11111222,99999999' 
WAVCIS,ioos:station:WAVCIS:CSI09:1,2008-02-03T17:00:00Z,29.1015,-89.9782,0.0,7.37,151.0,,'11111222,11111222,99999999' 
WAVCIS,ioos:station:WAVCIS:CSI09:1,2008-02-03T18:00:00Z,29.1015,-89.9782,0.0,6.904,147.0,,'11111222,11111222,99999999' 
WAVCIS,ioos:station:WAVCIS:CSI09:1,2008-02-03T19:00:00Z,29.1015,-89.9782,0.0,7.34,149.0,,'11111222,11111222,99999999' 
WAVCIS,ioos:station:WAVCIS:CSI09:1,2008-02-03T20:00:00Z,29.1015,-89.9782,0.0,6.14,154.0,,'11111222,11111222,99999999' 
WAVCIS,ioos:station:WAVCIS:CSI09:1,2008-02-03T21:00:00Z,29.1015,-89.9782,0.0,5.426,148.0,,'11111222,11111222,99999999' 
WAVCIS,ioos:station:WAVCIS:CSI09:1,2008-02-03T22:00:00Z,29.1015,-89.9782,0.0,4.893,147.0,,'11111222,11111222,99999999' 
WAVCIS,ioos:station:WAVCIS:CSI09:1,2008-02-03T23:00:00Z,29.1015,-89.9782,0.0,4.223,145.0,,'11111222,11111222,99999999' 
WAVCIS,ioos:station:WAVCIS:CSI09:1,2008-02-04T00:00:00Z,29.1015,-89.9782,0.0,5.106,141.0,,'11111222,11111222,99999999' 
WAVCIS,ioos:station:WAVCIS:CSI09:1,2008-02-04T01:00:00Z,29.1015,-89.9782,0.0,5.532,140.0,,'11111222,11111222,99999999' 
WAVCIS,ioos:station:WAVCIS:CSI09:1,2008-02-04T02:00:00Z,29.1015,-89.9782,0.0,6.373,142.0,,'11111222,11111222,99999999' 
WAVCIS,ioos:station:WAVCIS:CSI09:1,2008-02-04T03:00:00Z,29.1015,-89.9782,0.0,6.561,146.0,,'11111222,11111222,99999999' 
WAVCIS,ioos:station:WAVCIS:CSI09:1,2008-02-04T04:00:00Z,29.1015,-89.9782,0.0,7.81,147.0,,'11111222,11111222,99999999' 
WAVCIS,ioos:station:WAVCIS:CSI09:1,2008-02-04T05:00:00Z,29.1015,-89.9782,0.0,7.37,147.0,,'11111222,11111222,99999999' 
WAVCIS,ioos:station:WAVCIS:CSI09:1,2008-02-04T06:00:00Z,29.1015,-89.9782,0.0,7.6,149.0,,'11111222,11111222,99999999' 
WAVCIS,ioos:station:WAVCIS:CSI09:1,2008-02-04T07:00:00Z,29.1015,-89.9782,0.0,6.975,151.0,,'11111222,11111222,99999999' 
WAVCIS,ioos:station:WAVCIS:CSI09:1,2008-02-04T08:00:00Z,29.1015,-89.9782,0.0,5.828,151.0,,'11111222,11111222,99999999' 
WAVCIS,ioos:station:WAVCIS:CSI09:1,2008-02-04T09:00:00Z,29.1015,-89.9782,0.0,5.299,149.0,,'11111222,11111222,99999999' 
WAVCIS,ioos:station:WAVCIS:CSI09:1,2008-02-04T10:00:00Z,29.1015,-89.9782,0.0,4.339,134.0,,'11111222,11111222,99999999' 
WAVCIS,ioos:station:WAVCIS:CSI09:1,2008-02-04T11:00:00Z,29.1015,-89.9782,0.0,3.562,128.0,,'11111222,11111222,99999999' 
WAVCIS,ioos:station:WAVCIS:CSI09:1,2008-02-04T12:00:00Z,29.1015,-89.9782,0.0,4.657,131.0,,'11111222,11111222,99999999' 
WAVCIS,ioos:station:WAVCIS:CSI09:1,2008-02-04T13:00:00Z,29.1015,-89.9782,0.0,4.752,130.0,,'11111222,11111222,99999999' 
WAVCIS,ioos:station:WAVCIS:CSI09:1,2008-02-04T14:00:00Z,29.1015,-89.9782,0.0,5.678,131.0,,'11111222,11111222,99999999' 
WAVCIS,ioos:station:WAVCIS:CSI09:1,2008-02-04T15:00:00Z,29.1015,-89.9782,0.0,6.913,133.0,,'11111222,11111222,99999999' 
WAVCIS,ioos:station:WAVCIS:CSI09:1,2008-02-04T16:00:00Z,29.1015,-89.9782,0.0,7.34,133.0,,'11111222,11111222,99999999' 
WAVCIS,ioos:station:WAVCIS:CSI09:1,2008-02-04T17:00:00Z,29.1015,-89.9782,0.0,8.33,137.0,,'11111222,11111222,99999999' 
WAVCIS,ioos:station:WAVCIS:CSI09:1,2008-02-04T18:00:00Z,29.1015,-89.9782,0.0,8.14,137.0,,'11111222,11111222,99999999' 
WAVCIS,ioos:station:WAVCIS:CSI09:1,2008-02-04T19:00:00Z,29.1015,-89.9782,0.0,6.721,140.0,,'11111222,11111222,99999999' 
WAVCIS,ioos:station:WAVCIS:CSI09:1,2008-02-04T20:00:00Z,29.1015,-89.9782,0.0,6.175,139.0,,'11111222,11111222,99999999' 
WAVCIS,ioos:station:WAVCIS:CSI09:1,2008-02-04T21:00:00Z,29.1015,-89.9782,0.0,6.496,134.0,,'11111222,11111222,99999999' 
WAVCIS,ioos:station:WAVCIS:CSI09:1,2008-02-04T22:00:00Z,29.1015,-89.9782,0.0,6.225,136.0,,'11111222,11111222,99999999' 
WAVCIS,ioos:station:WAVCIS:CSI09:1,2008-02-04T23:00:00Z,29.1015,-89.9782,0.0,6.853,134.0,,'11111222,11111222,99999999' 
WAVCIS,ioos:station:WAVCIS:CSI09:1,2008-02-05T00:00:00Z,29.1015,-89.9782,0.0,8.02,137.0,,'11111222,11111222,99999999' 
WAVCIS,ioos:station:WAVCIS:CSI09:1,2008-02-05T01:00:00Z,29.1015,-89.9782,0.0,7.26,131.0,,'11111222,11111222,99999999' 
WAVCIS,ioos:station:WAVCIS:CSI09:1,2008-02-05T02:00:00Z,29.1015,-89.9782,0.0,8.17,136.0,,'11111222,11111222,99999999' 
WAVCIS,ioos:station:WAVCIS:CSI09:1,2008-02-05T03:00:00Z,29.1015,-89.9782,0.0,8.4,138.0,,'11111222,11111222,99999999' 
WAVCIS,ioos:station:WAVCIS:CSI09:1,2008-02-05T04:00:00Z,29.1015,-89.9782,0.0,8.56,139.0,,'11111222,11111222,99999999' 
WAVCIS,ioos:station:WAVCIS:CSI09:1,2008-02-05T05:00:00Z,29.1015,-89.9782,0.0,8.4,140.0,,'11111222,11111222,99999999' 
WAVCIS,ioos:station:WAVCIS:CSI09:1,2008-02-05T06:00:00Z,29.1015,-89.9782,0.0,8.42,141.0,,'11111222,11111222,99999999' 
WAVCIS,ioos:station:WAVCIS:CSI09:1,2008-02-05T07:00:00Z,29.1015,-89.9782,0.0,8.49,140.0,,'11111222,11111222,99999999' 
WAVCIS,ioos:station:WAVCIS:CSI09:1,2008-02-05T08:00:00Z,29.1015,-89.9782,0.0,8.37,142.0,,'11111222,11111222,99999999' 
WAVCIS,ioos:station:WAVCIS:CSI09:1,2008-02-05T09:00:00Z,29.1015,-89.9782,0.0,7.3,137.0,,'11111222,11111222,99999999' 
WAVCIS,ioos:station:WAVCIS:CSI09:1,2008-02-05T10:00:00Z,29.1015,-89.9782,0.0,8.11,141.0,,'11111222,11111222,99999999' 
WAVCIS,ioos:station:WAVCIS:CSI09:1,2008-02-05T11:00:00Z,29.1015,-89.9782,0.0,8.98,136.0,,'11111222,11111222,99999999' 
WAVCIS,ioos:station:WAVCIS:CSI09:1,2008-02-05T12:00:00Z,29.1015,-89.9782,0.0,8.82,138.0,,'11111222,11111222,99999999' 
WAVCIS,ioos:station:WAVCIS:CSI09:1,2008-02-05T13:00:00Z,29.1015,-89.9782,0.0,8.33,138.0,,'11111222,11111222,99999999' 
WAVCIS,ioos:station:WAVCIS:CSI09:1,2008-02-05T14:00:00Z,29.1015,-89.9782,0.0,8.52,137.0,,'11111222,11111222,99999999' 
WAVCIS,ioos:station:WAVCIS:CSI09:1,2008-02-05T15:00:00Z,29.1015,-89.9782,0.0,7.17,134.0,,'11111222,11111222,99999999' 
WAVCIS,ioos:station:WAVCIS:CSI09:1,2008-02-05T16:00:00Z,29.1015,-89.9782,0.0,7.84,133.0,,'11111222,11111222,99999999' 
WAVCIS,ioos:station:WAVCIS:CSI09:1,2008-02-05T17:00:00Z,29.1015,-89.9782,0.0,8.04,133.0,,'11111222,11111222,99999999' 
WAVCIS,ioos:station:WAVCIS:CSI09:1,2008-02-05T18:00:00Z,29.1015,-89.9782,0.0,8.2,136.0,,'11111222,11111222,99999999' 
WAVCIS,ioos:station:WAVCIS:CSI09:1,2008-02-05T19:00:00Z,29.1015,-89.9782,0.0,8.85,142.0,,'11111222,11111222,99999999' 
WAVCIS,ioos:station:WAVCIS:CSI09:1,2008-02-05T20:00:00Z,29.1015,-89.9782,0.0,7.79,144.0,,'11111222,11111222,99999999' 
WAVCIS,ioos:station:WAVCIS:CSI09:1,2008-02-05T21:00:00Z,29.1015,-89.9782,0.0,7.97,141.0,,'11111222,11111222,99999999' 
WAVCIS,ioos:station:WAVCIS:CSI09:1,2008-02-05T22:00:00Z,29.1015,-89.9782,0.0,8.15,145.0,,'11111222,11111222,99999999' 
WAVCIS,ioos:station:WAVCIS:CSI09:1,2008-02-05T23:00:00Z,29.1015,-89.9782,0.0,7.45,146.0,,'11111222,11111222,99999999' 
WAVCIS,ioos:station:WAVCIS:CSI09:1,2008-02-06T00:00:00Z,29.1015,-89.9782,0.0,8.84,147.0,,'11111222,11111222,99999999' 
WAVCIS,ioos:station:WAVCIS:CSI09:1,2008-02-06T01:00:00Z,29.1015,-89.9782,0.0,7.12,145.0,,'11111222,11111222,99999999' 
WAVCIS,ioos:station:WAVCIS:CSI09:1,2008-02-06T02:00:00Z,29.1015,-89.9782,0.0,8.04,142.0,,'11111222,11111222,99999999' 
WAVCIS,ioos:station:WAVCIS:CSI09:1,2008-02-06T03:00:00Z,29.1015,-89.9782,0.0,8.55,145.0,,'11111222,11111222,99999999' 
WAVCIS,ioos:station:WAVCIS:CSI09:1,2008-02-06T04:00:00Z,29.1015,-89.9782,0.0,7.4,156.0,,'11111222,11111222,99999999' 
WAVCIS,ioos:station:WAVCIS:CSI09:1,2008-02-06T05:00:00Z,29.1015,-89.9782,0.0,8.75,159.0,,'11111222,11111222,99999999' 
WAVCIS,ioos:station:WAVCIS:CSI09:1,2008-02-06T06:00:00Z,29.1015,-89.9782,0.0,10.15,154.0,,'11111222,11111222,99999999' 
WAVCIS,ioos:station:WAVCIS:CSI09:1,2008-02-06T07:00:00Z,29.1015,-89.9782,0.0,9.66,163.0,,'11111222,11111222,99999999' 
WAVCIS,ioos:station:WAVCIS:CSI09:1,2008-02-06T08:00:00Z,29.1015,-89.9782,0.0,9.04,176.0,,'11111222,11111222,99999999' 
WAVCIS,ioos:station:WAVCIS:CSI09:1,2008-02-06T09:00:00Z,29.1015,-89.9782,0.0,4.776,201.0,,'11111222,11111222,99999999' 
WAVCIS,ioos:station:WAVCIS:CSI09:1,2008-02-06T10:00:00Z,29.1015,-89.9782,0.0,5.141,202.0,,'11111222,11111222,99999999' 
WAVCIS,ioos:station:WAVCIS:CSI09:1,2008-02-06T11:00:00Z,29.1015,-89.9782,0.0,5.202,208.0,,'11111222,11111222,99999999' 
WAVCIS,ioos:station:WAVCIS:CSI09:1,2008-02-06T12:00:00Z,29.1015,-89.9782,0.0,9.31,245.0,,'11111222,11111222,99999999' 
WAVCIS,ioos:station:WAVCIS:CSI09:1,2008-02-06T13:00:00Z,29.1015,-89.9782,0.0,14.96,342.0,,'11111222,11111222,99999999' 
WAVCIS,ioos:station:WAVCIS:CSI09:1,2008-02-06T14:00:00Z,29.1015,-89.9782,0.0,12.46,329.0,,'11111222,11111222,99999999' 
WAVCIS,ioos:station:WAVCIS:CSI09:1,2008-02-06T15:00:00Z,29.1015,-89.9782,0.0,10.63,324.0,,'11111222,11111222,99999999' 
WAVCIS,ioos:station:WAVCIS:CSI09:1,2008-02-06T16:00:00Z,29.1015,-89.9782,0.0,9.81,318.0,,'11111222,11111222,99999999' 
WAVCIS,ioos:station:WAVCIS:CSI09:1,2008-02-06T17:00:00Z,29.1015,-89.9782,0.0,8.74,313.0,,'11111222,11111222,99999999' 
WAVCIS,ioos:station:WAVCIS:CSI09:1,2008-02-06T18:00:00Z,29.1015,-89.9782,0.0,5.595,312.0,,'11111222,11111222,99999999' 
WAVCIS,ioos:station:WAVCIS:CSI09:1,2008-02-06T19:00:00Z,29.1015,-89.9782,0.0,4.679,283.0,,'11111222,11111222,99999999' 
WAVCIS,ioos:station:WAVCIS:CSI09:1,2008-02-06T20:00:00Z,29.1015,-89.9782,0.0,6.853,272.0,,'11111222,11111222,99999999' 
WAVCIS,ioos:station:WAVCIS:CSI09:1,2008-02-06T21:00:00Z,29.1015,-89.9782,0.0,7.67,271.0,,'11111222,11111222,99999999' 
WAVCIS,ioos:station:WAVCIS:CSI09:1,2008-02-06T22:00:00Z,29.1015,-89.9782,0.0,7.81,273.0,,'11111222,11111222,99999999' 
WAVCIS,ioos:station:WAVCIS:CSI09:1,2008-02-06T23:00:00Z,29.1015,-89.9782,0.0,5.29,323.0,,'11111222,11111222,99999999' 
WAVCIS,ioos:station:WAVCIS:CSI09:1,2008-02-07T00:00:00Z,29.1015,-89.9782,0.0,7.2,348.0,,'11111222,11111222,99999999' 
WAVCIS,ioos:station:WAVCIS:CSI09:1,2008-02-07T01:00:00Z,29.1015,-89.9782,0.0,7.88,341.0,,'11111222,11111222,99999999' 
WAVCIS,ioos:station:WAVCIS:CSI09:1,2008-02-07T02:00:00Z,29.1015,-89.9782,0.0,7.48,340.0,,'11111222,11111222,99999999' 
WAVCIS,ioos:station:WAVCIS:CSI09:1,2008-02-07T03:00:00Z,29.1015,-89.9782,0.0,8.59,335.0,,'11111222,11111222,99999999' 
WAVCIS,ioos:station:WAVCIS:CSI09:1,2008-02-07T04:00:00Z,29.1015,-89.9782,0.0,8.23,337.0,,'11111222,11111222,99999999' 
WAVCIS,ioos:station:WAVCIS:CSI09:1,2008-02-07T05:00:00Z,29.1015,-89.9782,0.0,7.28,352.0,,'11111222,11111222,99999999' 
WAVCIS,ioos:station:WAVCIS:CSI09:1,2008-02-07T06:00:00Z,29.1015,-89.9782,0.0,8.8,352.0,,'11111222,11111222,99999999' 
WAVCIS,ioos:station:WAVCIS:CSI09:1,2008-02-07T07:00:00Z,29.1015,-89.9782,0.0,8.89,358.0,,'11111222,11111222,99999999' 
WAVCIS,ioos:station:WAVCIS:CSI09:1,2008-02-07T08:00:00Z,29.1015,-89.9782,0.0,9.02,7.0,,'11111222,11111222,99999999' 
WAVCIS,ioos:station:WAVCIS:CSI09:1,2008-02-07T09:00:00Z,29.1015,-89.9782,0.0,8.91,10.0,,'11111222,11111222,99999999' 
WAVCIS,ioos:station:WAVCIS:CSI09:1,2008-02-07T10:00:00Z,29.1015,-89.9782,0.0,8.38,14.0,,'11111222,11111222,99999999' 
WAVCIS,ioos:station:WAVCIS:CSI09:1,2008-02-07T11:00:00Z,29.1015,-89.9782,0.0,7.42,25.0,,'11111222,11111222,99999999' 
WAVCIS,ioos:station:WAVCIS:CSI09:1,2008-02-07T12:00:00Z,29.1015,-89.9782,0.0,7.39,34.0,,'11111222,11111222,99999999' 
WAVCIS,ioos:station:WAVCIS:CSI09:1,2008-02-07T13:00:00Z,29.1015,-89.9782,0.0,7.13,37.0,,'11111222,11111222,99999999' 
WAVCIS,ioos:station:WAVCIS:CSI09:1,2008-02-07T14:00:00Z,29.1015,-89.9782,0.0,5.869,52.0,,'11111222,11111222,99999999' 
WAVCIS,ioos:station:WAVCIS:CSI09:1,2008-02-07T15:00:00Z,29.1015,-89.9782,0.0,5.381,39.0,,'11111222,11111222,99999999' 
WAVCIS,ioos:station:WAVCIS:CSI09:1,2008-02-07T16:00:00Z,29.1015,-89.9782,0.0,5.928,54.0,,'11111222,11111222,99999999' 
WAVCIS,ioos:station:WAVCIS:CSI09:1,2008-02-07T17:00:00Z,29.1015,-89.9782,0.0,3.916,54.0,,'11111222,11111222,99999999' 
WAVCIS,ioos:station:WAVCIS:CSI09:1,2008-02-07T18:00:00Z,29.1015,-89.9782,0.0,3.325,54.0,,'11111222,11111222,99999999' 
WAVCIS,ioos:station:WAVCIS:CSI09:1,2008-02-07T20:00:00Z,29.1015,-89.9782,0.0,1.327,87.0,,'11111222,11111222,99999999' 
WAVCIS,ioos:station:WAVCIS:CSI09:1,2008-02-07T21:00:00Z,29.1015,-89.9782,0.0,0.879,64.0,,'11111222,11111222,99999999' 
WAVCIS,ioos:station:WAVCIS:CSI09:1,2008-02-07T22:00:00Z,29.1015,-89.9782,0.0,0.708,267.0,,'11111222,11111222,99999999' 
WAVCIS,ioos:station:WAVCIS:CSI09:1,2008-02-07T23:00:00Z,29.1015,-89.9782,0.0,1.124,240.0,,'11111222,11111222,99999999' 
WAVCIS,ioos:station:WAVCIS:CSI09:1,2008-02-08T00:00:00Z,29.1015,-89.9782,0.0,2.302,244.0,,'11111222,11111222,99999999' 
WAVCIS,ioos:station:WAVCIS:CSI09:1,2008-02-08T01:00:00Z,29.1015,-89.9782,0.0,4.215,237.0,,'11111222,11111222,99999999' 
WAVCIS,ioos:station:WAVCIS:CSI09:1,2008-02-08T02:00:00Z,29.1015,-89.9782,0.0,6.128,246.0,,'11111222,11111222,99999999' 
WAVCIS,ioos:station:WAVCIS:CSI09:1,2008-02-08T03:00:00Z,29.1015,-89.9782,0.0,6.489,253.0,,'11111222,11111222,99999999' 
WAVCIS,ioos:station:WAVCIS:CSI09:1,2008-02-08T04:00:00Z,29.1015,-89.9782,0.0,6.207,253.0,,'11111222,11111222,99999999' 
WAVCIS,ioos:station:WAVCIS:CSI09:1,2008-02-08T05:00:00Z,29.1015,-89.9782,0.0,5.258,236.0,,'11111222,11111222,99999999' 
WAVCIS,ioos:station:WAVCIS:CSI09:1,2008-02-08T06:00:00Z,29.1015,-89.9782,0.0,6.044,239.0,,'11111222,11111222,99999999' 
WAVCIS,ioos:station:WAVCIS:CSI09:1,2008-02-08T07:00:00Z,29.1015,-89.9782,0.0,6.134,246.0,,'11111222,11111222,99999999' 
WAVCIS,ioos:station:WAVCIS:CSI09:1,2008-02-08T08:00:00Z,29.1015,-89.9782,0.0,7.24,265.0,,'11111222,11111222,99999999' 
WAVCIS,ioos:station:WAVCIS:CSI09:1,2008-02-08T09:00:00Z,29.1015,-89.9782,0.0,6.829,262.0,,'11111222,11111222,99999999' 
WAVCIS,ioos:station:WAVCIS:CSI09:1,2008-02-08T10:00:00Z,29.1015,-89.9782,0.0,7.56,270.0,,'11111222,11111222,99999999' 
WAVCIS,ioos:station:WAVCIS:CSI09:1,2008-02-08T11:00:00Z,29.1015,-89.9782,0.0,8.86,317.0,,'11111222,11111222,99999999' 
WAVCIS,ioos:station:WAVCIS:CSI09:1,2008-02-08T12:00:00Z,29.1015,-89.9782,0.0,8.56,349.0,,'11111222,11111222,99999999' 
WAVCIS,ioos:station:WAVCIS:CSI09:1,2008-02-08T13:00:00Z,29.1015,-89.9782,0.0,7.55,2.0,,'11111222,11111222,99999999' 
WAVCIS,ioos:station:WAVCIS:CSI09:1,2008-02-08T14:00:00Z,29.1015,-89.9782,0.0,6.639,18.0,,'11111222,11111222,99999999' 
WAVCIS,ioos:station:WAVCIS:CSI09:1,2008-02-08T15:00:00Z,29.1015,-89.9782,0.0,4.753,40.0,,'11111222,11111222,99999999' 
WAVCIS,ioos:station:WAVCIS:CSI09:1,2008-02-08T16:00:00Z,29.1015,-89.9782,0.0,3.792,46.0,,'11111222,11111222,99999999' 
WAVCIS,ioos:station:WAVCIS:CSI09:1,2008-02-08T17:00:00Z,29.1015,-89.9782,0.0,3.783,55.0,,'11111222,11111222,99999999' 
WAVCIS,ioos:station:WAVCIS:CSI09:1,2008-02-08T18:00:00Z,29.1015,-89.9782,0.0,3.169,68.0,,'11111222,11111222,99999999' 
WAVCIS,ioos:station:WAVCIS:CSI09:1,2008-02-08T19:00:00Z,29.1015,-89.9782,0.0,3.142,79.0,,'11111222,11111222,99999999' 
WAVCIS,ioos:station:WAVCIS:CSI09:1,2008-02-08T20:00:00Z,29.1015,-89.9782,0.0,2.793,83.0,,'11111222,11111222,99999999' 
WAVCIS,ioos:station:WAVCIS:CSI09:1,2008-02-08T21:00:00Z,29.1015,-89.9782,0.0,2.223,96.0,,'11111222,11111222,99999999' 
WAVCIS,ioos:station:WAVCIS:CSI09:1,2008-02-08T22:00:00Z,29.1015,-89.9782,0.0,2.661,131.0,,'11111222,11111222,99999999' 
WAVCIS,ioos:station:WAVCIS:CSI09:1,2008-02-08T23:00:00Z,29.1015,-89.9782,0.0,2.81,132.0,,'11111222,11111222,99999999' 
WAVCIS,ioos:station:WAVCIS:CSI09:1,2008-02-09T00:00:00Z,29.1015,-89.9782,0.0,2.879,130.0,,'11111222,11111222,99999999' 
WAVCIS,ioos:station:WAVCIS:CSI09:1,2008-02-09T01:00:00Z,29.1015,-89.9782,0.0,4.03,143.0,,'11111222,11111222,99999999' 
WAVCIS,ioos:station:WAVCIS:CSI09:1,2008-02-09T02:00:00Z,29.1015,-89.9782,0.0,4.792,139.0,,'11111222,11111222,99999999' 
WAVCIS,ioos:station:WAVCIS:CSI09:1,2008-02-09T03:00:00Z,29.1015,-89.9782,0.0,5.261,151.0,,'11111222,11111222,99999999' 
WAVCIS,ioos:station:WAVCIS:CSI09:1,2008-02-09T04:00:00Z,29.1015,-89.9782,0.0,5.592,162.0,,'11111222,11111222,99999999' 
WAVCIS,ioos:station:WAVCIS:CSI09:1,2008-02-09T05:00:00Z,29.1015,-89.9782,0.0,5.139,170.0,,'11111222,11111222,99999999' 
WAVCIS,ioos:station:WAVCIS:CSI09:1,2008-02-09T06:00:00Z,29.1015,-89.9782,0.0,6.315,173.0,,'11111222,11111222,99999999' 
WAVCIS,ioos:station:WAVCIS:CSI09:1,2008-02-09T07:00:00Z,29.1015,-89.9782,0.0,5.748,172.0,,'11111222,11111222,99999999' 
WAVCIS,ioos:station:WAVCIS:CSI09:1,2008-02-09T08:00:00Z,29.1015,-89.9782,0.0,2.498,237.0,,'11111222,11111222,99999999' 